Theta_e
312 312 312 312 312 312 312 311 310 310 310 309 307 307 306 306 306 306 306 307 307 307 308 307 307 307 307 307 308 309 310 311 313 317 319 318 318 317 314 311 313 314 314 314 314 314 314 314 314 311 316 316 313 315 313 316 327 340 342 332 324 324 324 323 321 318 321 323 318 316 316 318 317 314 312 310 315 318 314 316 316 311 309 309 309 309 308 315
312 312 312 312 313 312 312 312 311 309 308 308 308 307 307 306 306 306 307 306 307 307 307 307 307 307 307 308 308 309 311 314 316 315 315 315 315 315 313 311 313 315 315 314 314 314 316 317 313 312 319 318 311 316 318 313 324 341 338 330 330 329 321 321 324 317 316 318 317 316 315 317 316 315 313 313 318 316 315 316 316 318 316 311 311 311 310 316
311 312 312 312 313 312 311 311 310 308 307 308 308 308 307 307 306 306 307 307 307 307 307 307 307 307 308 308 309 310 313 317 318 316 313 313 313 312 312 313 314 315 315 315 315 313 315 316 310 313 322 319 313 319 324 317 318 328 333 334 332 331 322 318 321 320 317 315 317 316 314 315 314 314 312 315 319 316 318 320 316 320 321 317 314 311 311 317
312 312 312 311 311 311 310 310 310 308 307 307 308 308 307 307 307 306 307 306 307 307 306 307 307 308 308 309 310 310 314 316 317 316 312 311 312 312 312 314 315 315 315 315 315 314 314 313 310 316 320 319 321 324 322 317 316 319 328 332 326 325 321 318 320 321 318 315 317 318 315 315 313 313 314 316 319 317 321 321 317 321 324 322 316 311 311 316
311 311 311 310 310 310 309 310 310 307 306 307 307 307 307 308 308 307 307 307 307 307 307 307 308 308 309 310 311 311 316 316 313 313 312 312 311 312 313 313 315 315 315 315 315 314 312 310 313 322 322 319 327 325 317 314 316 318 318 320 321 320 317 318 320 318 316 313 316 319 315 315 313 313 317 318 318 320 320 317 317 319 319 320 316 311 310 312
310 310 311 309 309 310 310 310 310 309 306 306 307 307 307 307 307 307 307 308 308 308 308 308 308 309 310 311 311 311 316 316 312 313 313 312 311 312 313 313 315 315 315 316 314 313 315 315 317 325 323 320 321 319 316 313 315 320 316 315 319 319 316 317 318 316 315 316 318 318 315 314 315 315 316 316 317 319 315 312 315 312 308 311 312 311 313 313
309 308 309 308 308 310 311 311 311 311 310 309 308 307 307 307 307 307 307 308 308 309 309 309 309 310 311 312 312 314 318 317 314 315 313 311 312 313 312 312 314 315 315 315 314 316 320 321 321 322 322 319 316 315 317 315 317 325 320 315 317 316 316 316 316 317 317 318 317 316 314 315 318 317 313 315 317 318 312 306 306 304 303 308 312 313 313 312
308 308 309 308 308 309 309 311 311 311 311 311 310 308 308 307 306 307 307 308 308 309 310 310 310 310 311 312 314 315 317 317 316 315 313 312 312 312 312 313 314 315 315 314 314 317 320 320 318 317 320 317 314 315 315 315 321 324 318 317 317 316 318 317 316 318 317 317 315 314 316 316 318 314 312 318 319 317 312 306 305 305 308 311 318 318 310 308
311 310 310 309 309 308 308 309 310 312 312 311 310 308 308 308 307 307 307 308 308 310 310 311 311 311 313 311 312 313 312 316 317 315 313 311 312 312 313 313 314 315 315 314 313 313 316 318 316 315 318 315 313 316 316 317 318 318 318 320 318 317 320 317 315 319 318 316 314 315 318 316 313 312 314 320 318 314 312 313 313 314 318 317 318 317 308 307
313 312 312 310 309 309 309 309 309 311 311 311 308 308 309 308 307 307 307 308 308 310 310 311 311 311 313 311 310 310 313 317 318 314 313 312 312 312 312 313 315 316 314 315 313 313 314 316 313 312 316 317 315 316 315 316 316 316 320 320 318 321 321 317 316 319 318 316 315 315 318 317 313 313 316 319 314 310 316 319 314 317 323 318 316 314 307 306
314 313 313 311 310 310 310 309 308 308 310 310 308 308 309 307 307 308 308 309 309 310 310 311 312 312 313 312 312 311 315 319 318 314 313 312 312 312 313 314 316 316 315 315 313 313 313 312 309 310 315 315 315 317 314 314 314 315 319 318 319 324 320 316 317 317 316 315 316 315 316 316 313 314 317 317 310 309 319 323 315 317 321 315 315 314 307 306
314 314 313 312 312 311 310 310 309 308 308 308 308 309 308 307 307 307 307 309 310 310 311 312 312 313 312 312 315 315 316 320 317 315 314 313 313 313 314 315 316 315 316 314 313 313 313 312 311 314 316 313 316 317 314 313 314 316 319 317 323 329 322 315 316 316 314 315 316 315 315 318 316 315 317 314 308 309 316 322 318 315 316 314 314 314 308 305
314 314 313 313 312 312 311 310 309 309 308 307 308 308 308 307 306 307 308 309 311 311 312 312 313 313 311 313 316 314 316 318 317 315 315 314 314 314 315 315 314 315 316 314 313 313 313 312 313 315 315 317 319 313 315 318 315 317 317 318 325 329 324 315 313 314 313 315 316 315 318 326 326 319 316 312 309 312 316 319 317 314 314 314 313 313 311 305
315 314 314 313 313 313 313 312 310 309 308 307 308 308 307 307 307 307 308 310 311 312 313 313 314 312 311 314 314 313 315 316 318 317 315 315 314 315 315 313 314 314 315 314 313 313 313 312 312 315 312 316 316 310 323 328 323 320 314 324 328 320 326 323 314 316 314 314 314 314 318 326 328 324 316 310 309 314 319 319 315 314 313 312 312 311 312 307
315 315 314 314 314 314 313 313 311 310 309 308 308 308 307 307 308 307 308 311 312 312 313 313 314 314 316 315 312 313 315 315 318 317 315 316 315 315 314 313 314 314 314 314 314 313 312 312 315 319 313 313 315 317 331 330 330 329 315 327 330 316 330 333 316 316 316 313 312 314 320 321 322 322 315 308 308 312 318 319 313 313 312 311 311 309 310 308
316 315 315 315 314 313 314 313 312 311 309 308 307 308 308 308 309 309 310 312 313 313 313 313 312 313 316 314 312 314 315 316 318 317 316 315 315 316 314 313 314 314 314 312 314 314 313 316 316 315 314 315 322 333 338 327 331 334 318 323 330 319 327 328 316 315 316 314 312 314 320 322 321 319 313 307 307 310 315 318 315 313 311 309 309 308 308 308
317 316 316 315 314 314 313 313 313 312 309 308 308 309 309 309 310 311 312 313 315 314 313 314 311 309 311 310 313 316 315 316 317 316 316 315 316 315 313 314 312 311 314 312 314 314 313 317 315 313 318 322 325 333 333 323 326 331 321 320 329 325 322 323 322 317 312 314 314 314 316 319 319 318 315 311 308 311 317 320 317 312 309 308 307 307 307 307
318 317 317 316 315 314 314 313 313 312 310 309 309 310 310 310 311 312 314 314 313 311 310 312 309 309 311 309 312 315 314 316 316 315 316 316 315 314 314 313 310 312 317 316 315 316 316 320 321 321 324 322 322 325 324 322 327 332 326 324 326 322 319 324 327 317 311 314 315 315 316 316 316 314 315 316 310 313 320 319 315 311 309 308 307 307 306 306
319 318 318 317 316 315 314 313 312 312 311 309 311 311 309 310 312 314 315 314 312 309 309 311 310 311 312 311 313 315 314 315 316 315 315 316 313 313 314 311 313 317 319 320 317 317 320 322 324 324 323 322 321 321 321 323 329 332 334 334 330 324 322 325 327 321 314 314 317 317 316 316 316 314 314 317 312 312 317 314 310 310 309 308 307 307 306 306
320 319 319 318 317 316 315 313 313 313 311 311 313 310 308 312 312 311 314 317 317 312 312 314 312 312 313 315 316 315 315 315 315 316 315 315 313 314 314 312 320 321 319 325 320 315 318 321 324 324 323 323 320 319 320 322 323 326 331 332 328 325 326 326 325 322 314 314 321 319 316 317 315 315 314 315 314 313 315 314 312 311 309 308 308 307 307 306
320 320 320 319 317 316 315 314 313 312 311 312 313 308 310 314 309 307 314 319 316 309 312 316 311 311 312 313 315 314 316 317 315 315 315 313 314 315 317 317 322 322 321 325 320 315 318 321 324 323 320 319 318 319 320 321 321 325 327 323 324 325 326 325 320 319 315 315 323 320 315 317 315 313 312 312 315 316 316 316 314 312 310 309 308 308 307 306
321 321 320 319 318 317 315 314 313 312 312 311 312 311 312 313 310 309 312 316 315 310 312 313 311 314 313 312 314 314 317 321 318 316 315 313 314 316 319 321 323 322 320 320 319 319 321 323 321 319 318 318 318 317 318 320 320 325 327 321 324 326 323 323 318 316 315 315 324 323 317 318 316 314 313 313 313 313 313 313 313 313 312 310 309 308 308 307
322 322 321 320 319 317 315 314 313 312 312 311 311 311 312 314 313 311 310 313 317 314 314 315 314 316 316 313 314 315 317 322 321 318 316 313 315 317 318 321 322 322 320 319 322 323 323 325 321 317 319 320 319 317 317 319 319 323 325 322 324 324 321 322 320 317 315 315 320 320 317 317 315 314 315 313 313 313 311 312 311 310 311 311 311 310 309 309
323 322 322 321 319 318 316 314 313 312 312 312 311 311 315 316 315 313 313 313 315 316 315 314 312 315 318 313 312 317 318 319 319 318 315 315 317 316 317 321 322 322 320 319 321 321 323 322 315 314 318 320 322 320 318 320 321 323 323 321 323 323 322 322 321 320 320 320 317 317 322 324 323 323 322 320 320 318 313 313 313 311 310 310 310 311 310 310
322 322 322 321 320 319 316 314 313 312 312 312 311 312 315 317 314 312 313 313 313 315 313 310 311 315 315 312 313 318 317 317 319 317 313 314 317 316 316 318 320 321 319 318 317 319 321 317 314 318 316 318 324 322 323 324 323 326 326 322 321 322 322 320 320 321 326 329 320 316 326 334 334 332 328 330 332 328 321 319 319 316 312 311 311 310 309 309
321 322 322 321 321 318 316 315 314 312 313 312 310 311 314 316 314 311 312 315 313 314 312 310 313 314 311 313 316 316 315 316 316 314 313 313 315 315 316 316 316 319 319 318 317 318 319 315 318 325 320 319 321 320 324 322 321 326 325 321 319 318 319 319 321 322 328 332 319 314 323 331 331 325 324 331 332 327 324 324 323 318 316 315 313 311 310 309
320 321 321 321 320 318 316 316 314 313 315 314 310 311 314 316 313 310 311 315 312 313 315 312 311 310 311 313 313 312 312 315 314 313 313 314 313 314 317 317 315 317 318 318 319 318 319 317 318 324 324 322 320 322 323 318 323 329 322 320 321 318 319 321 320 322 326 327 320 318 323 326 325 322 325 329 325 323 323 321 321 318 317 317 315 314 312 310
320 320 321 321 319 319 318 316 314 312 314 314 310 310 314 315 312 310 310 313 311 311 314 314 310 310 313 311 311 314 314 314 316 315 312 312 314 315 318 319 317 318 318 318 319 316 317 322 320 320 323 323 322 327 324 317 324 326 316 318 321 320 322 322 322 324 322 321 324 323 320 323 329 329 331 328 322 324 325 323 322 319 318 319 318 317 314 311
319 320 320 320 319 319 318 317 315 314 313 312 310 311 314 313 311 311 313 314 314 313 312 313 311 312 315 311 311 317 316 316 318 315 312 312 313 315 317 318 318 318 315 315 318 315 315 318 318 319 321 323 325 324 318 317 321 318 313 318 320 321 323 324 326 326 324 323 325 325 321 323 328 330 329 325 323 326 323 321 320 319 320 320 320 321 318 314
318 319 320 320 318 317 316 315 315 315 313 312 311 312 314 314 310 309 314 315 314 315 313 312 313 315 317 313 313 316 316 318 317 315 316 315 315 316 315 314 318 321 318 316 319 318 314 312 313 318 319 321 324 318 313 318 319 314 319 326 326 327 327 327 328 325 326 328 324 323 324 322 326 329 327 321 325 328 324 324 323 322 326 327 325 325 322 316
317 319 320 319 318 316 316 315 314 315 313 311 312 313 314 315 313 313 315 313 311 315 315 314 314 315 316 315 316 316 316 318 316 316 318 316 317 319 316 314 319 325 322 319 321 319 315 315 317 318 317 319 324 319 314 315 314 318 330 331 327 330 328 327 329 326 328 330 323 320 320 320 325 329 325 320 323 325 325 327 328 327 331 332 330 328 324 316
316 318 319 319 318 317 316 316 315 315 312 311 313 316 315 314 316 317 317 315 315 318 317 317 316 316 316 315 315 315 317 319 317 317 319 318 317 318 317 318 319 322 321 319 320 318 317 321 321 317 313 317 325 324 318 315 315 321 330 328 326 329 327 327 329 327 328 326 318 315 318 319 321 324 322 321 321 322 321 322 325 327 327 327 325 327 324 316
315 316 317 318 318 317 316 317 316 314 312 311 314 317 316 315 317 318 318 318 320 318 318 320 318 316 316 316 316 315 316 319 317 317 318 317 318 317 317 320 318 319 323 319 317 318 320 321 319 316 316 318 322 322 321 321 319 321 325 327 328 328 330 335 332 324 324 323 315 313 318 321 322 323 321 320 318 319 319 318 320 321 320 319 319 321 322 317
314 315 316 317 317 317 316 316 316 314 312 312 315 317 316 316 318 318 317 317 319 320 319 319 317 315 315 317 318 316 315 318 317 318 318 317 319 319 318 319 316 320 328 321 316 319 320 320 319 317 319 319 318 318 324 325 320 319 323 324 327 330 332 337 335 328 326 326 319 315 319 327 329 326 321 319 320 321 321 319 317 318 316 315 316 316 317 317
313 314 314 315 316 317 316 316 316 314 313 314 316 316 315 317 318 319 318 314 319 323 319 317 317 317 317 319 319 316 315 317 315 317 319 318 320 319 318 318 315 319 326 319 318 319 317 321 322 317 317 318 318 319 324 323 318 319 322 322 324 327 324 322 323 324 325 326 325 321 323 329 328 323 319 319 324 328 325 319 317 319 316 313 316 316 314 313
313 313 313 314 315 316 316 316 315 314 314 315 315 315 316 316 317 319 318 313 318 323 319 318 321 320 318 318 319 316 315 318 317 318 319 318 320 319 316 318 315 316 317 314 320 322 318 322 320 314 316 316 317 320 321 320 319 319 320 321 321 319 320 321 319 316 317 321 326 324 325 329 326 323 322 321 324 326 324 320 321 322 319 315 318 317 314 313
312 313 313 313 313 314 316 316 315 314 315 315 315 316 315 316 317 317 318 315 317 320 319 319 321 320 319 318 319 318 317 319 318 318 320 318 320 320 317 318 316 314 314 313 319 323 321 323 319 315 318 314 312 319 320 317 318 321 323 322 318 316 322 327 324 324 324 325 327 324 324 329 327 325 325 321 322 323 320 320 320 320 320 319 320 318 314 314
310 313 314 313 312 313 315 315 314 314 315 315 315 316 314 314 316 316 317 317 317 319 320 319 318 318 320 319 320 318 316 318 318 318 319 317 319 321 317 318 318 315 314 312 316 321 319 320 320 315 317 315 312 318 321 315 313 320 324 321 320 324 327 325 325 331 330 328 331 328 322 323 323 326 327 322 326 332 327 321 320 323 323 321 323 321 316 315
308 312 314 313 312 312 314 315 314 313 316 315 315 315 313 313 314 315 317 317 316 319 318 318 318 318 320 320 320 319 316 317 318 318 319 317 318 320 316 317 318 316 314 313 316 321 319 317 321 315 313 316 316 318 322 319 314 315 317 316 319 324 326 324 324 326 328 329 332 329 326 325 324 325 327 322 325 334 334 328 327 332 331 327 329 324 317 317
309 312 314 312 311 312 314 314 314 314 316 315 314 315 314 313 313 314 316 315 316 319 317 317 319 319 320 319 319 320 318 317 317 317 318 317 317 319 316 315 318 317 315 313 315 320 319 316 320 317 312 316 321 320 320 320 317 317 318 319 319 319 321 324 322 322 327 331 331 329 326 326 327 325 325 323 323 327 333 333 333 336 336 335 332 323 318 320
310 311 313 312 312 313 314 314 314 315 316 316 316 314 313 314 314 314 315 313 314 317 316 317 321 319 319 319 318 319 319 317 317 317 318 317 317 320 318 315 318 318 316 315 315 318 318 318 321 321 317 319 322 319 316 317 318 318 319 320 319 319 320 322 321 320 323 325 328 329 324 323 329 325 321 322 322 322 325 326 328 335 340 343 331 318 318 320
309 310 312 313 313 314 315 315 315 315 316 316 316 315 314 314 315 315 314 313 313 315 315 317 320 319 319 319 319 319 319 319 318 317 318 318 316 318 319 315 316 318 316 316 316 316 320 323 323 323 322 321 319 314 312 316 318 317 318 319 319 318 320 323 324 322 323 322 323 324 324 324 324 320 319 321 322 322 320 319 325 333 340 345 333 317 316 318
307 309 310 312 314 314 314 316 315 314 315 316 315 315 314 314 315 314 314 314 313 314 315 316 317 317 318 319 319 320 320 319 319 317 318 319 316 316 320 318 315 316 316 317 317 316 320 323 321 321 325 325 320 314 312 313 315 317 318 319 320 318 320 325 327 323 324 325 322 322 325 323 317 316 320 321 320 321 319 317 324 330 335 339 331 318 317 320
307 308 308 309 312 314 314 315 315 315 315 315 315 316 315 314 314 314 314 314 314 314 314 314 316 316 317 318 319 319 320 320 320 319 318 320 319 317 320 321 317 316 317 317 318 316 318 322 321 320 324 325 322 320 317 314 315 319 322 320 319 319 320 322 323 321 323 326 324 323 325 322 318 319 321 320 320 322 323 322 320 324 332 335 331 324 321 321
306 307 308 308 309 311 313 313 314 314 314 314 315 315 315 315 315 314 314 314 313 314 315 314 315 316 317 319 318 318 320 319 320 321 319 320 320 318 319 321 318 316 316 317 317 317 318 321 320 319 321 322 320 322 323 320 316 318 323 321 318 319 320 320 320 322 323 324 323 323 323 321 321 323 322 321 322 323 325 325 320 321 325 325 329 333 325 319
305 305 308 309 309 310 311 312 313 314 314 314 314 315 315 316 316 314 314 314 313 314 314 315 316 316 316 318 318 318 319 318 319 322 321 320 321 319 318 319 317 317 317 317 317 320 323 323 319 318 320 319 318 321 323 322 320 319 321 320 317 318 318 319 320 322 322 322 322 322 321 321 322 322 323 324 325 325 325 326 324 325 325 322 324 324 317 313
304 304 306 309 310 309 309 310 313 314 314 313 314 314 315 316 316 315 315 314 314 314 314 315 316 316 316 317 317 317 318 318 319 321 321 320 319 319 318 316 317 317 318 318 319 322 324 323 320 320 319 318 318 321 322 322 321 321 320 319 317 317 318 319 321 321 321 322 323 321 320 322 320 320 325 326 326 326 328 330 330 329 330 328 322 317 317 320
302 303 305 308 310 310 309 309 310 312 313 313 313 313 315 315 316 317 316 314 315 315 315 316 316 316 316 316 317 317 317 318 319 318 319 319 318 319 319 317 317 317 317 317 318 322 324 321 320 322 321 319 319 320 322 322 321 321 320 319 318 317 317 319 319 320 320 322 323 321 322 323 320 318 323 323 323 325 325 327 326 323 326 327 320 318 324 328
302 302 304 306 307 308 308 307 308 310 311 312 313 313 314 315 315 316 316 315 316 315 315 316 316 315 316 316 317 317 317 318 319 318 318 318 319 320 321 320 318 316 316 317 318 321 322 320 320 322 322 321 319 320 323 322 320 320 319 318 318 317 317 318 318 318 319 320 320 320 323 322 319 319 322 321 321 321 319 320 321 320 323 325 322 322 324 322
301 302 303 304 304 305 306 305 306 309 310 311 312 313 313 314 315 315 315 316 316 316 315 316 316 316 316 316 316 317 316 317 318 318 318 318 319 319 319 322 322 317 315 317 317 318 319 320 322 321 320 322 320 319 322 322 321 321 320 318 317 317 317 317 318 318 318 319 319 319 321 320 318 321 324 324 325 322 318 320 322 321 320 321 321 321 320 320
300 301 302 303 303 304 306 306 306 307 308 309 311 312 313 313 314 314 315 315 316 316 315 315 316 316 316 316 316 316 316 317 316 318 319 318 319 318 318 322 324 320 316 317 318 318 317 320 322 321 320 322 321 320 321 320 319 320 320 320 318 317 317 316 317 318 318 319 319 319 320 319 318 320 323 324 326 324 321 321 321 320 319 319 319 319 319 319
300 300 301 301 302 304 305 306 306 307 308 309 309 310 311 312 313 313 314 314 314 315 315 315 315 316 316 316 316 315 315 315 316 319 321 319 318 320 320 321 321 320 319 318 318 318 318 319 320 320 322 322 321 323 322 319 320 320 320 319 318 316 317 317 317 317 317 318 319 320 319 318 318 320 320 321 322 323 322 320 319 318 318 319 319 319 318 317
Wind_Speed
3 3 3 3 2 2 2 2 1 1 0 1 1 2 2 3 3 3 3 3 3 3 3 4 5 6 7 7 8 8 7 6 4 3 3 1 2 3 3 3 4 6 5 4 5 2 3 6 8 9 5 4 5 2 3 3 3 5 4 4 3 4 4 6 8 7 5 3 5 5 3 7 4 2 1 1 5 3 1 3 3 4 4 4 3 1 6 14
3 3 3 3 3 3 3 3 1 0 0 0 0 0 1 2 3 3 3 3 3 3 3 4 5 6 7 8 8 8 8 7 4 3 3 1 3 2 1 3 5 5 5 5 7 6 4 4 7 8 5 3 3 3 3 2 4 4 3 4 3 6 5 6 8 6 2 2 5 4 2 4 5 4 3 2 2 3 1 4 5 6 6 4 3 4 8 13
3 3 3 3 2 2 2 2 1 1 1 1 0 0 1 1 2 3 3 3 3 3 4 4 5 6 7 7 8 8 8 5 3 2 2 1 1 2 3 4 5 6 6 6 6 6 3 1 3 5 5 4 2 3 4 4 2 2 4 3 5 6 4 4 7 7 4 4 6 4 2 1 2 3 2 3 2 1 4 6 2 5 9 6 5 6 9 13
3 3 2 2 2 2 2 2 1 1 1 1 0 0 1 1 1 2 2 2 2 3 3 3 4 5 6 7 7 8 7 5 1 0 3 2 3 5 5 5 6 6 6 6 5 5 4 2 4 5 4 3 4 4 4 3 1 2 4 3 4 3 1 3 6 6 4 4 6 5 3 1 3 2 2 5 4 3 7 8 8 9 10 8 7 7 10 13
3 2 1 1 1 2 2 2 1 0 1 1 1 1 1 1 1 2 2 2 2 2 2 3 4 5 6 6 7 7 6 5 1 1 3 2 4 5 5 6 6 6 7 6 4 4 4 4 6 6 5 3 5 5 2 3 2 3 1 3 4 3 1 2 4 4 4 4 5 6 5 3 2 1 3 8 6 6 7 6 8 9 8 8 9 9 10 12
3 1 1 1 1 3 3 3 2 2 1 1 0 1 1 1 1 1 1 1 1 2 2 2 3 4 5 5 6 5 5 1 3 2 3 3 5 4 4 5 6 7 6 6 5 4 4 5 7 5 4 3 3 3 1 4 2 3 1 1 3 3 0 0 2 3 5 7 6 6 4 3 3 1 2 7 9 8 5 5 6 8 7 9 10 10 9 10
3 2 1 1 1 2 3 4 4 4 4 3 3 1 1 2 1 1 1 1 1 1 1 2 3 3 4 4 4 5 4 2 3 3 5 4 5 3 4 4 6 6 6 7 7 4 5 7 6 3 4 4 0 2 1 5 4 6 1 2 2 4 2 1 2 2 4 6 6 4 3 3 5 4 1 5 11 6 3 4 4 6 6 9 9 9 10 11
2 1 0 1 1 1 1 2 4 4 5 4 4 4 2 2 1 1 1 1 1 1 1 2 3 3 4 3 3 5 2 3 2 5 6 5 4 3 2 3 5 6 6 9 7 3 4 6 4 4 4 2 3 2 3 3 5 5 2 2 1 2 4 3 3 4 3 2 2 3 3 2 5 3 0 8 11 4 2 2 2 3 6 8 8 8 8 9
4 4 4 3 2 2 3 3 4 4 5 5 4 4 3 3 1 1 1 1 1 1 2 2 3 3 3 3 6 3 3 3 1 6 6 5 4 2 1 2 6 6 7 9 6 3 2 2 3 4 4 2 3 2 3 2 1 1 2 1 1 2 5 3 2 4 3 0 2 3 1 4 2 1 4 10 7 2 2 4 3 5 6 6 7 8 8 8
2 4 6 5 5 6 6 6 6 5 5 4 4 4 3 3 1 0 0 0 1 1 2 2 3 3 2 3 6 1 4 3 2 6 5 5 4 2 0 3 5 6 7 7 6 6 3 4 4 4 6 3 3 2 2 2 2 2 3 2 2 3 5 3 1 3 2 0 2 3 4 4 3 1 5 6 1 3 4 4 1 4 6 7 5 6 8 9
1 3 4 5 6 6 7 7 7 7 6 5 5 4 3 3 1 0 0 0 1 1 1 2 3 2 2 4 5 3 3 3 2 5 4 4 3 2 1 4 5 5 6 6 7 6 4 6 6 4 2 1 2 3 2 2 2 2 3 2 3 5 3 2 2 3 2 1 3 4 2 4 4 1 6 2 1 2 4 4 3 4 6 6 6 5 6 9
1 2 3 4 4 5 6 6 7 7 7 7 7 5 4 2 1 1 1 1 1 1 1 2 3 2 3 4 3 5 3 2 2 3 3 3 3 2 3 5 5 6 5 5 5 5 5 4 6 5 0 2 3 2 1 2 3 1 3 1 6 8 4 2 2 2 1 1 3 4 1 5 3 8 7 1 2 2 4 5 4 5 6 5 6 5 5 9
1 1 2 2 3 4 4 5 6 6 7 7 7 7 7 4 1 1 1 1 1 2 2 2 2 2 3 1 2 4 4 2 2 3 3 2 3 3 4 4 5 7 6 7 5 5 5 2 6 6 2 5 2 1 3 4 3 0 3 3 3 7 5 4 2 1 2 2 2 3 2 6 8 13 6 1 4 5 3 6 5 6 5 5 6 5 6 9
2 1 0 1 2 3 3 4 5 5 6 6 6 6 7 5 1 1 1 1 1 1 1 3 2 3 3 2 3 2 5 4 2 3 4 3 4 4 5 5 5 7 7 9 7 6 6 4 7 7 3 4 2 1 4 6 4 1 1 2 3 2 4 6 1 3 5 1 1 4 3 6 9 12 6 1 4 6 6 8 6 6 6 6 6 5 7 8
2 1 0 1 2 2 3 4 4 5 5 4 5 5 5 4 2 1 1 2 2 2 2 3 2 3 3 3 3 2 4 3 3 4 4 4 4 4 4 5 6 7 7 8 8 8 7 5 7 5 1 2 3 4 4 4 4 3 1 3 3 2 5 8 2 5 4 1 2 4 3 7 9 10 6 2 4 5 7 7 6 7 7 7 6 6 7 8
3 2 1 1 2 2 3 4 4 4 3 3 4 4 4 3 2 1 1 2 3 3 3 3 2 4 2 2 2 2 2 2 3 4 5 5 4 5 6 7 7 7 7 7 7 6 8 7 4 3 1 1 5 5 4 4 4 4 1 2 2 2 3 6 2 2 0 1 1 1 3 4 5 7 6 2 4 4 6 8 8 8 8 8 7 6 7 7
3 3 3 2 2 2 3 4 4 4 3 2 2 2 3 3 2 2 3 5 5 4 4 3 3 3 0 2 2 3 1 3 4 6 7 5 5 7 7 6 6 7 6 6 4 3 7 6 1 1 3 3 3 5 4 2 4 4 2 2 4 3 2 3 3 3 1 2 2 3 4 7 7 6 5 1 4 4 6 10 10 9 8 7 7 7 8 8
4 4 3 3 2 2 3 4 5 4 2 1 3 4 5 4 4 4 6 7 7 5 5 3 3 3 2 2 2 2 1 4 6 7 7 7 6 7 7 6 5 6 6 5 4 3 4 4 2 1 3 3 2 5 3 5 4 3 3 2 3 2 2 3 4 2 2 1 3 3 4 11 13 11 8 5 5 6 9 10 8 8 8 7 7 8 9 9
6 4 4 4 3 3 3 4 5 5 2 1 5 7 6 5 4 4 5 5 3 2 1 2 2 3 3 2 1 2 4 5 6 6 7 8 8 9 9 7 6 6 5 1 2 3 1 3 4 1 1 2 4 7 7 7 6 6 6 4 4 3 3 5 5 5 3 2 4 7 7 11 13 12 10 5 5 7 10 9 8 8 8 8 8 9 10 10
8 6 5 4 4 4 3 4 6 6 2 3 7 7 4 3 4 2 1 0 3 4 3 3 3 2 1 3 0 5 6 5 3 4 7 9 10 9 7 6 6 6 3 3 1 2 3 3 1 5 7 7 9 7 5 5 6 6 5 4 4 4 4 5 4 6 2 3 6 7 7 11 12 12 12 4 4 6 10 10 11 11 9 9 10 11 11 12
8 8 7 6 5 4 4 4 6 6 3 4 7 5 2 3 3 1 2 3 6 5 4 2 1 2 2 2 3 5 4 3 3 2 8 8 9 8 1 4 5 2 1 3 2 2 4 3 8 9 7 7 6 5 6 6 5 5 4 2 2 3 5 6 3 4 1 3 5 3 4 12 12 12 12 4 4 8 11 12 14 13 11 9 11 13 12 10
9 9 8 8 6 5 4 4 5 6 4 3 6 3 2 4 5 3 2 2 7 6 6 3 1 4 4 2 5 4 1 2 1 1 7 7 4 4 1 4 5 3 1 2 2 3 3 4 12 7 5 5 4 5 7 6 5 4 3 2 2 3 4 6 3 4 1 3 4 5 4 11 13 12 12 9 9 10 11 12 13 12 11 10 11 13 11 10
12 11 10 9 8 6 4 4 5 6 4 3 4 3 3 5 7 5 4 1 5 4 4 5 4 5 4 2 6 6 0 3 3 4 8 7 2 3 4 5 5 4 2 4 5 4 2 6 9 4 8 7 5 4 7 5 2 2 3 3 3 3 1 4 4 4 1 1 2 3 5 8 12 11 11 11 10 9 10 12 12 10 11 14 12 10 10 11
15 14 13 11 9 8 6 5 5 6 5 5 7 5 6 8 8 6 3 1 4 4 2 5 5 5 6 5 9 10 2 3 4 5 11 10 4 2 5 5 5 4 4 7 7 5 5 6 2 5 7 7 6 4 6 5 3 3 5 6 4 4 6 5 4 4 3 3 2 2 5 7 8 8 9 7 5 7 9 9 12 12 12 13 11 10 11 12
17 17 16 14 11 9 8 5 5 7 5 5 8 9 9 9 8 7 3 2 3 5 3 3 3 5 9 7 10 10 1 3 4 6 13 13 8 4 2 2 4 4 6 5 5 4 8 5 3 6 3 5 7 4 5 7 3 4 5 9 10 8 7 4 3 5 4 5 3 1 3 6 5 6 9 6 5 7 7 7 12 13 10 9 10 12 12 11
16 18 18 17 14 13 9 4 6 7 5 5 7 10 12 9 8 7 5 4 3 4 1 3 3 6 9 7 8 7 2 5 4 5 13 13 8 5 3 2 2 3 6 5 3 3 4 1 4 6 5 5 5 3 6 7 5 3 5 8 10 7 4 3 2 2 1 4 3 2 2 5 7 8 9 5 7 10 8 8 12 12 9 8 9 11 10 9
12 15 18 19 19 18 10 3 5 5 3 5 5 12 14 10 8 6 4 4 4 3 4 2 1 5 7 7 9 8 2 5 1 5 7 9 5 3 3 5 2 2 4 4 1 3 4 3 3 5 5 5 5 3 6 8 7 3 4 5 6 6 5 5 5 3 3 3 4 1 3 3 6 9 7 3 6 10 10 12 13 12 12 10 9 10 9 9
9 11 16 20 23 23 15 7 8 7 4 3 5 17 17 12 8 4 4 0 4 2 4 1 1 3 2 3 6 5 2 2 4 2 1 3 3 3 3 7 7 6 5 6 4 3 4 6 6 7 4 4 6 5 8 11 5 4 2 5 6 6 5 5 6 3 1 4 5 3 3 2 6 7 6 2 5 9 10 13 14 12 12 10 9 9 8 8
8 8 12 20 24 25 20 13 8 7 6 2 9 19 18 12 7 4 4 3 2 1 2 1 2 1 3 3 2 2 2 2 2 2 2 3 1 4 3 7 6 7 4 3 5 2 1 5 7 7 5 6 4 2 7 10 4 3 5 7 6 6 5 5 5 3 4 3 9 7 5 2 6 5 5 3 4 8 10 11 12 11 10 9 8 8 7 6
8 9 10 18 24 25 20 14 10 7 4 4 11 19 16 8 4 4 2 3 1 1 0 1 2 2 6 8 2 2 2 2 0 1 3 1 2 5 2 3 6 5 0 3 3 3 1 1 2 3 4 5 4 3 1 4 4 5 6 6 6 6 5 4 3 4 3 5 10 6 9 7 5 4 6 6 5 7 7 8 9 8 9 9 6 6 6 5
8 9 10 16 26 28 18 11 14 12 5 8 14 14 9 2 3 5 6 1 1 1 2 1 2 4 10 12 5 2 2 2 1 3 3 2 2 4 1 1 4 4 2 4 4 3 3 1 2 2 2 4 6 5 4 3 4 5 4 5 4 4 4 4 4 3 1 6 6 2 6 8 6 6 6 8 7 6 7 8 9 9 10 8 5 5 5 4
8 9 9 15 24 29 20 13 20 19 10 14 16 7 2 2 2 6 5 2 0 3 5 4 4 6 10 8 5 5 4 1 2 5 5 4 5 5 5 6 5 3 2 7 4 3 2 4 3 3 1 4 6 5 4 4 3 4 4 5 4 2 3 3 3 0 3 7 4 2 1 4 7 9 9 12 13 11 9 9 9 11 12 9 6 5 5 3
8 9 9 12 20 29 25 18 22 20 16 22 16 5 1 3 5 9 8 4 2 2 2 2 3 6 9 7 3 4 4 2 5 4 2 4 6 7 5 5 7 4 2 6 3 1 3 6 2 1 2 3 7 6 3 1 3 5 5 5 4 2 1 3 4 1 4 6 3 1 2 2 5 7 11 17 17 12 9 10 10 11 12 10 7 6 5 4
7 9 9 10 17 27 26 20 21 23 23 21 12 4 3 3 5 9 11 8 2 2 2 3 5 5 7 5 3 6 4 3 6 4 2 5 5 6 6 7 7 2 3 4 3 6 6 6 5 7 3 6 11 9 6 6 5 5 4 5 5 5 5 4 4 3 4 4 4 3 2 3 4 3 7 12 12 9 8 10 9 10 11 7 6 7 6 5
8 9 10 9 14 23 26 23 22 26 25 15 6 5 8 7 5 6 8 6 1 3 3 3 6 6 4 2 3 5 4 2 5 5 3 6 6 7 7 8 9 5 4 5 2 4 6 8 6 3 1 10 12 5 5 8 3 2 3 4 3 5 5 1 3 5 2 2 4 2 4 5 4 6 8 7 7 8 8 8 7 12 11 4 5 8 6 6
8 10 11 10 12 18 23 24 24 28 22 9 4 5 7 7 4 3 4 3 3 4 4 2 4 4 4 2 2 5 2 1 5 4 3 4 4 6 7 7 12 11 9 7 3 2 3 6 5 2 1 5 6 2 4 4 3 2 3 4 4 4 6 3 2 1 4 2 4 2 5 5 3 7 10 7 9 10 9 8 7 11 10 6 7 9 6 6
8 9 9 10 13 16 20 23 27 27 15 5 5 7 5 5 3 2 2 2 3 6 6 2 2 4 5 3 3 6 2 1 4 4 3 3 3 6 8 6 9 15 15 9 4 3 5 4 5 1 1 2 1 3 3 3 3 6 4 6 2 2 3 3 1 2 3 3 5 2 5 5 2 5 6 3 8 12 12 10 9 10 9 7 10 9 5 5
9 6 8 13 18 16 16 24 28 21 8 3 6 6 4 4 5 4 2 1 4 5 5 5 4 4 6 6 5 5 5 3 5 5 4 3 4 7 11 6 5 15 17 8 3 3 4 3 5 1 3 3 3 4 2 4 2 5 4 4 4 2 2 2 2 2 1 3 5 4 4 4 5 5 4 4 9 11 12 9 8 10 10 8 10 9 4 2
8 5 5 10 18 17 18 25 24 11 3 4 6 5 5 7 7 4 2 0 1 4 5 6 3 2 3 6 4 4 6 7 7 6 4 5 5 6 12 9 6 11 15 11 6 2 3 3 4 2 1 1 3 2 5 2 2 3 2 2 3 2 4 3 3 3 3 3 3 4 5 4 7 7 7 11 12 10 9 7 7 10 10 8 8 7 4 2
4 4 2 4 13 20 23 24 15 5 3 5 6 5 5 7 6 6 7 4 1 3 5 6 5 4 4 5 4 3 6 7 7 7 5 6 5 5 8 11 5 4 8 11 8 1 2 4 4 2 3 1 3 5 9 10 7 4 4 4 3 1 2 1 1 2 4 3 2 2 6 8 6 5 9 13 11 10 9 7 8 9 8 8 8 6 5 4
1 4 3 7 18 26 25 16 6 4 5 5 7 6 5 4 4 7 9 6 2 2 2 3 5 5 5 5 4 4 5 5 6 6 4 5 7 5 6 10 9 6 6 7 8 5 3 4 4 2 1 4 5 4 5 9 9 8 8 9 9 7 4 3 3 1 2 2 4 3 7 12 6 5 8 9 8 9 8 8 7 8 8 8 6 5 6 5
3 4 2 10 27 30 18 6 3 4 5 7 9 7 4 2 3 5 7 6 5 4 1 2 5 5 4 5 5 5 6 4 5 6 4 7 10 8 5 7 10 12 10 7 10 9 4 3 3 3 4 6 5 2 1 4 4 3 4 6 7 7 6 6 5 3 2 1 2 4 4 12 5 3 6 6 5 5 5 6 7 8 8 7 5 5 5 5
3 4 2 8 31 32 12 4 5 4 5 8 10 8 4 3 3 5 6 7 7 5 4 4 3 5 6 4 4 5 6 5 6 7 6 6 9 8 5 6 8 11 9 4 6 5 2 2 4 3 2 3 4 3 3 1 2 2 4 3 4 6 5 5 5 4 4 4 3 4 4 10 4 1 3 3 3 4 4 6 7 7 7 6 6 5 5 6
2 3 3 4 21 24 10 5 7 6 8 9 9 8 5 4 5 6 7 10 9 6 6 6 3 5 6 3 4 6 8 6 5 8 8 6 6 6 7 10 9 8 7 4 4 6 4 4 5 4 3 3 3 2 2 1 2 3 4 4 6 8 7 3 2 2 2 7 9 6 7 10 2 3 3 2 3 5 6 6 6 6 7 7 6 5 5 5
1 2 2 5 12 11 5 6 8 8 10 11 10 9 8 6 6 9 10 10 8 6 5 6 5 5 4 3 4 6 8 9 6 7 8 7 5 2 5 12 11 9 9 4 1 5 6 5 7 8 7 8 8 6 5 4 2 1 3 6 8 10 11 7 3 3 5 9 9 7 11 10 2 5 5 4 5 6 7 6 5 6 8 7 6 6 5 3
0 2 3 3 6 6 4 5 6 6 8 10 9 9 13 10 6 9 10 8 8 8 7 5 5 6 5 6 7 7 9 11 9 6 6 8 6 2 3 10 11 12 13 5 2 3 2 3 9 12 12 13 14 10 4 8 7 6 9 10 10 11 13 10 5 6 10 7 5 9 16 15 9 4 5 7 5 7 7 5 5 7 7 8 7 7 5 4
2 4 3 3 2 5 7 7 7 6 7 9 7 6 12 15 9 6 8 8 9 11 9 6 6 8 9 10 10 9 10 10 9 8 8 8 5 2 0 5 8 12 13 7 4 5 2 3 9 13 15 16 17 13 7 9 11 15 15 13 13 13 13 12 12 14 12 5 7 15 15 16 20 11 7 9 8 7 8 6 7 8 7 7 6 5 5 4
3 3 3 2 1 4 6 7 8 8 9 10 8 7 11 14 12 8 7 8 9 11 9 7 9 13 14 14 12 10 10 10 9 11 11 8 4 1 1 1 5 7 7 5 3 5 4 5 8 10 12 15 18 12 8 9 9 13 16 17 17 16 16 17 20 21 15 8 14 18 11 13 22 14 10 12 10 8 9 8 6 6 6 6 6 5 6 6
3 2 3 2 2 3 3 3 3 6 11 12 9 10 12 13 15 12 7 6 7 10 11 11 14 17 17 16 12 10 11 10 10 12 12 9 6 4 3 4 3 2 5 5 3 3 4 7 9 10 10 14 19 12 8 9 7 7 12 16 18 18 20 22 23 23 19 14 17 19 13 15 20 13 10 11 10 9 8 5 5 6 7 8 8 8 9 8
4 2 1 0 1 3 4 4 2 2 7 10 9 11 12 13 15 12 8 9 9 8 12 16 18 17 16 16 13 13 13 13 14 15 11 9 8 6 6 6 2 1 4 5 3 1 4 7 8 8 7 12 20 15 9 9 8 7 9 11 15 19 22 23 21 18 15 15 18 20 17 18 16 7 8 8 7 6 5 6 9 9 8 8 8 9 9 9
8 2 1 1 1 4 4 4 4 3 4 5 5 6 10 13 14 11 9 11 13 10 11 17 19 15 13 15 16 17 17 16 18 16 10 10 11 8 7 7 6 5 5 5 4 3 4 4 2 4 6 12 17 13 9 8 8 8 9 12 18 19 18 17 15 14 14 16 18 17 15 17 12 5 5 7 6 7 9 10 10 10 8 8 8 9 10 11
11 6 2 1 2 5 4 2 3 5 4 5 5 6 9 10 11 11 9 8 11 13 11 15 18 14 12 16 19 20 21 19 16 12 7 7 7 5 5 6 8 8 7 6 4 3 6 5 3 4 7 11 11 7 8 6 5 8 14 19 21 17 11 10 12 16 18 16 13 12 14 19 15 6 7 8 7 9 13 11 9 10 8 8 9 10 11 11
Wind_Direction
141 138 132 127 114 93 81 72 102 137 162 214 217 221 219 222 228 233 245 251 255 275 301 311 324 329 335 338 335 338 337 339 347 10 28 358 308 339 358 27 35 16 19 7 7 26 3 8 3 17 74 59 14 343 14 21 53 56 78 95 149 176 194 187 177 192 172 180 208 225 184 139 163 212 180 48 33 38 345 319 306 309 271 227 252 218 157 157
134 130 121 109 100 90 89 71 67 163 187 189 307 231 234 231 232 240 248 261 266 279 303 313 329 333 336 338 334 338 338 344 6 20 22 329 279 302 30 49 42 27 29 31 31 43 45 347 343 19 54 46 350 347 30 10 56 84 108 97 200 195 200 195 175 188 162 143 179 187 161 151 176 166 143 182 322 1 326 284 332 325 282 245 226 178 171 166
137 127 115 123 114 91 99 79 76 183 149 115 333 43 226 246 244 250 256 271 280 287 305 319 332 338 340 337 336 339 345 9 26 10 38 57 158 139 109 73 55 39 34 37 34 38 61 319 350 39 50 52 357 0 40 10 35 132 108 92 235 211 220 217 179 193 198 147 148 167 161 166 219 160 155 177 173 326 221 230 256 273 257 230 210 177 172 176
138 123 125 143 128 99 91 60 34 200 151 134 262 219 202 274 268 254 264 273 283 291 307 327 332 341 341 338 341 341 4 45 29 1 89 88 123 128 105 79 58 45 35 32 36 38 64 87 58 58 62 47 339 15 51 350 352 113 103 156 223 185 207 220 191 204 201 158 146 151 128 162 238 168 151 145 137 269 247 226 206 219 228 208 204 189 177 180
158 121 124 147 88 58 57 61 25 38 144 175 244 236 209 284 278 261 268 271 280 287 308 325 333 345 342 344 344 341 23 59 265 158 108 130 132 129 100 72 50 46 35 27 29 42 55 61 58 49 53 44 349 27 40 318 70 71 49 191 193 144 116 222 194 190 158 130 121 129 146 180 178 131 153 153 175 236 232 232 221 220 216 193 188 183 178 181
177 163 139 203 70 43 31 39 34 45 54 26 308 256 244 272 272 275 273 286 294 289 315 326 341 347 345 351 344 355 58 83 266 164 157 161 146 140 98 61 41 37 28 33 33 48 48 36 54 51 47 54 9 52 18 310 48 92 350 288 212 193 211 284 178 178 135 121 140 155 173 143 118 258 185 174 214 224 220 249 242 247 231 188 171 168 176 185
193 190 196 227 98 66 36 27 23 30 32 26 20 18 351 306 299 303 299 324 309 304 337 337 346 349 357 0 352 27 71 261 268 172 183 171 163 152 93 49 35 23 19 40 33 64 69 40 65 115 81 67 151 89 346 312 36 90 113 299 223 204 244 324 105 149 123 131 177 172 125 124 169 222 74 211 236 237 260 278 252 248 208 172 163 173 187 191
336 334 294 325 65 89 51 24 15 17 19 18 24 32 31 8 342 341 346 340 341 350 350 353 358 3 7 16 47 31 0 274 234 177 184 176 173 154 104 42 28 16 39 48 32 109 92 53 101 153 82 75 164 94 338 336 35 65 134 233 180 213 274 314 87 93 88 122 148 119 127 204 198 188 332 245 246 253 300 2 80 136 146 163 175 186 191 192
13 16 14 8 25 38 21 16 12 9 11 10 21 29 30 37 45 19 353 343 29 18 7 19 7 17 22 61 83 46 282 289 206 182 181 182 174 155 160 27 18 18 55 52 36 82 90 119 180 182 143 150 127 70 341 51 40 92 130 198 61 339 320 338 96 69 50 80 94 122 229 290 256 215 266 255 243 213 101 69 78 119 145 183 190 193 192 192
36 32 23 14 31 39 27 20 13 7 7 2 6 13 15 30 47 69 28 1 82 50 29 37 20 34 45 73 87 120 274 331 224 188 176 181 174 176 232 16 18 39 67 55 47 56 74 167 177 154 138 126 102 69 348 79 133 146 108 118 82 342 324 11 30 10 10 231 143 177 242 291 330 318 255 267 228 141 105 86 107 151 179 204 201 208 204 205
64 46 33 22 31 35 24 17 12 6 0 359 3 357 350 3 8 341 312 128 134 102 60 59 44 45 56 78 110 199 278 353 216 189 176 179 170 178 40 23 31 65 78 64 62 57 73 151 145 129 127 105 103 38 5 114 121 98 108 141 0 347 331 23 4 318 330 202 163 152 239 299 359 267 238 270 98 135 129 158 209 192 211 219 216 227 216 223
115 60 45 34 37 32 21 12 8 1 353 0 4 358 357 345 330 317 279 165 147 118 101 86 68 88 67 66 141 215 275 345 236 194 183 180 160 146 53 41 50 66 84 82 78 61 68 141 118 91 1 136 119 34 92 118 96 60 74 148 317 357 2 320 327 285 256 186 179 128 321 291 244 228 244 0 116 108 133 193 224 219 232 237 232 242 231 232
192 91 46 40 43 31 19 9 6 0 354 1 3 5 7 352 327 308 280 191 147 120 113 105 85 97 84 49 219 226 261 295 262 200 183 176 148 116 67 69 67 64 81 91 89 62 61 127 108 99 115 106 116 175 104 55 56 344 46 87 331 1 343 302 19 6 161 167 186 126 277 270 246 244 260 24 148 124 167 223 232 232 242 246 242 248 245 238
198 171 48 17 24 16 10 4 2 359 358 1 4 6 4 1 354 269 239 176 155 129 106 103 105 101 93 242 247 261 261 260 247 205 188 186 153 114 87 83 76 73 79 84 80 56 63 102 97 94 90 86 128 107 43 13 24 21 11 54 26 17 285 294 346 135 151 177 66 111 243 268 267 266 284 298 172 156 211 233 232 237 244 243 245 245 247 243
209 202 245 338 337 351 356 353 354 356 0 5 11 12 5 8 0 325 168 172 141 119 112 104 113 101 70 284 261 287 265 235 206 197 181 181 160 125 99 89 84 81 79 82 80 63 65 91 80 71 20 4 64 71 30 356 17 32 335 312 351 158 268 304 291 159 146 356 56 116 233 275 272 272 301 301 183 178 225 242 242 242 242 240 242 240 246 253
220 218 239 271 308 332 335 340 346 348 359 12 18 21 16 18 18 38 144 143 121 117 105 97 97 97 85 279 258 285 266 183 173 175 165 165 156 135 113 97 82 79 83 82 85 69 49 56 63 61 127 49 67 82 47 11 350 358 65 246 270 170 273 314 314 232 198 64 49 183 234 279 279 280 322 0 176 190 241 257 252 242 244 240 239 240 243 251
225 227 235 243 282 310 316 327 337 342 358 35 51 52 46 40 50 89 125 115 111 103 88 103 99 82 99 245 245 274 250 148 158 158 155 144 132 134 121 96 76 78 81 68 69 55 28 39 74 351 49 58 81 94 60 341 288 317 19 234 242 197 210 295 310 292 35 94 214 226 235 256 266 277 305 283 179 188 234 252 251 245 246 241 240 244 242 241
228 233 233 238 257 279 302 316 329 337 347 83 102 102 91 74 79 112 128 119 104 78 70 88 80 65 276 249 204 240 116 133 146 146 147 134 123 126 114 95 88 74 54 35 34 36 17 27 63 38 24 18 66 105 140 222 212 198 192 197 251 237 210 256 285 251 121 80 225 212 247 260 267 273 269 234 181 192 230 245 253 255 250 245 243 241 241 238
236 237 234 241 245 259 285 309 321 328 340 124 130 123 105 78 82 113 120 112 110 102 150 224 129 133 225 265 238 116 100 119 137 143 140 132 127 112 96 85 84 75 67 53 350 17 50 50 58 91 227 218 186 171 188 199 164 158 172 153 175 217 247 237 251 262 203 142 239 224 235 256 265 272 270 243 184 206 244 258 263 258 249 245 243 243 241 236
241 241 240 242 236 250 272 302 314 315 322 155 147 130 111 75 51 11 354 54 193 160 144 217 204 177 262 317 344 121 110 101 114 146 140 141 136 112 77 47 49 55 87 160 235 4 86 103 190 217 213 203 200 191 167 149 126 120 124 127 175 197 268 255 246 288 245 164 253 235 235 261 263 267 271 256 174 225 252 258 258 251 245 241 238 242 239 236
243 242 243 243 237 244 260 291 302 300 302 178 165 145 157 149 108 283 272 276 249 205 183 209 191 247 271 278 189 152 124 63 33 126 147 150 142 134 48 26 72 53 296 172 159 25 74 146 230 230 207 194 187 156 124 112 95 88 121 157 257 209 250 256 233 301 300 172 269 296 270 267 264 265 271 257 190 234 240 240 250 247 243 241 238 243 241 242
242 243 244 242 235 230 243 274 287 292 300 211 185 162 163 157 132 123 121 296 279 240 209 209 6 277 262 240 204 191 34 62 15 246 164 142 125 165 160 68 122 177 279 116 112 28 54 226 244 229 147 115 98 120 126 118 100 83 111 142 265 248 271 281 287 330 349 181 271 336 314 273 269 266 264 252 235 242 238 234 245 248 247 245 238 242 243 245
243 242 243 241 234 221 218 244 269 288 292 244 214 163 134 139 127 106 100 87 295 277 194 196 218 239 239 257 209 182 141 175 184 240 185 145 98 173 134 105 134 136 130 167 159 144 164 249 254 195 137 120 82 100 118 110 112 134 139 155 237 250 272 280 296 332 330 195 270 323 314 281 274 272 260 250 244 254 256 249 253 247 243 248 244 241 236 236
245 243 242 238 232 217 203 220 256 274 272 260 248 203 139 132 136 130 109 60 297 288 234 203 201 199 203 219 190 171 195 206 173 208 185 153 116 153 149 138 129 124 188 194 170 177 222 247 252 114 141 143 114 113 133 144 235 239 189 188 211 224 217 230 288 325 333 358 6 317 312 287 274 277 268 274 296 282 266 261 266 253 240 249 255 251 236 231
244 246 244 235 229 213 195 204 240 251 256 262 245 205 150 137 141 137 113 37 298 294 302 222 204 207 200 176 165 164 147 246 218 198 180 162 141 140 163 141 125 175 205 174 158 224 251 241 117 101 125 134 129 157 177 168 205 280 231 203 211 220 224 236 358 9 358 336 334 13 303 283 297 287 265 287 320 287 265 252 260 262 251 244 249 250 242 235
237 243 244 237 224 199 180 203 244 237 234 255 242 193 164 152 137 131 103 45 288 274 285 188 181 195 190 158 151 139 76 262 248 162 169 172 156 122 139 146 83 197 188 149 162 233 246 235 97 120 142 144 146 198 221 174 147 283 251 205 209 208 205 210 115 67 316 268 288 77 200 268 309 294 265 267 276 268 270 265 261 268 264 243 241 247 244 237
233 235 240 238 218 190 173 192 219 196 205 272 237 181 175 163 142 135 87 26 284 212 147 201 195 163 176 168 153 135 187 248 98 121 165 176 177 75 125 169 114 186 167 124 233 249 179 156 87 116 119 134 166 219 222 166 137 243 251 166 169 174 191 192 154 173 238 269 301 72 148 255 292 286 279 280 277 275 275 272 268 266 264 255 250 248 245 238
240 236 234 233 219 203 201 196 177 177 209 285 175 175 177 167 158 123 89 124 279 142 132 245 174 121 116 163 151 127 212 221 112 190 281 139 182 48 124 190 168 177 173 145 211 265 151 174 187 164 135 163 195 219 189 157 149 245 215 122 132 148 166 140 127 179 332 357 290 239 133 231 263 275 299 311 276 278 270 265 266 264 265 263 258 255 250 238
244 240 235 231 221 210 210 205 188 199 219 186 161 173 172 168 164 74 82 195 271 100 142 129 135 80 55 132 180 71 39 25 121 235 5 99 158 50 153 196 148 159 192 168 207 266 107 197 200 162 158 198 206 242 183 163 176 204 129 96 81 78 82 86 111 134 57 343 260 228 147 210 265 265 284 296 258 260 260 262 263 263 267 265 261 266 266 247
240 240 241 227 211 200 198 204 209 210 208 182 171 168 164 165 141 99 160 218 239 208 214 126 169 177 129 142 224 334 74 17 11 81 43 102 21 32 132 159 92 122 236 334 263 257 318 267 213 163 176 184 136 70 146 147 144 141 107 70 50 39 45 53 63 87 75 274 266 228 166 187 268 264 240 245 229 223 238 261 270 273 275 269 263 268 267 255
234 238 239 219 206 196 187 195 200 195 183 167 158 151 152 122 79 160 200 219 22 192 148 162 187 140 149 158 182 200 117 27 201 140 124 164 72 44 87 120 73 72 7 306 285 302 333 337 249 235 178 124 97 69 29 51 98 106 89 81 63 353 11 23 358 52 142 251 280 300 165 180 231 252 239 251 254 230 225 248 266 272 272 267 261 266 263 247
231 235 232 221 213 202 197 204 196 189 177 157 143 119 139 151 148 204 204 91 353 206 166 179 193 166 167 168 173 172 140 85 191 166 153 158 167 181 192 184 161 104 272 239 249 340 282 231 259 306 213 141 114 84 35 18 49 83 101 107 95 332 356 348 298 129 218 253 279 0 98 190 231 250 254 259 260 246 229 235 247 256 263 264 263 267 266 230
235 237 236 230 218 207 207 212 199 186 167 153 141 84 40 175 197 209 199 173 200 226 148 121 134 150 155 158 183 169 134 166 186 174 153 146 173 207 232 222 185 160 195 202 198 244 274 290 280 180 250 183 154 156 160 193 179 155 150 141 137 149 170 255 262 273 263 268 280 256 245 253 259 259 244 243 250 248 240 244 244 248 256 260 267 272 273 242
244 240 244 237 224 216 211 209 201 184 162 151 143 112 139 195 215 205 208 212 219 16 32 78 88 116 150 167 208 171 152 221 179 145 121 138 164 213 235 239 214 157 99 151 174 184 217 278 217 178 201 184 181 191 166 138 161 184 156 138 159 168 172 215 223 222 254 282 303 286 241 198 204 252 238 234 256 272 260 255 259 263 257 248 266 276 270 253
257 247 250 241 228 220 210 207 202 182 163 154 154 156 173 201 211 202 213 219 208 36 18 48 89 116 184 264 294 186 169 218 172 138 154 168 185 205 201 211 205 168 134 178 216 170 200 259 244 217 177 168 181 200 118 110 143 214 118 117 196 195 162 185 208 177 181 308 303 256 231 214 207 277 273 243 265 276 263 269 277 269 267 267 275 267 253 244
267 260 257 241 230 222 211 207 196 178 165 156 166 179 197 209 192 180 204 195 166 125 98 54 76 120 204 247 274 221 188 108 153 151 191 201 217 209 200 210 198 187 184 186 197 146 179 270 287 354 20 168 180 183 123 138 179 159 142 179 217 181 132 119 257 74 75 274 270 214 244 286 319 286 275 258 268 273 269 277 268 261 275 300 283 267 246 230
281 258 243 234 230 222 213 204 187 176 171 164 181 192 203 220 197 162 200 162 142 137 132 175 180 160 190 199 208 212 195 87 152 172 196 202 243 213 205 227 199 195 203 196 207 197 166 254 298 78 180 272 344 115 73 25 128 131 185 205 169 91 103 113 219 351 41 248 271 246 243 280 292 271 296 296 262 265 262 258 256 265 279 281 273 273 256 219
301 258 232 237 232 220 210 198 183 175 179 177 201 211 190 212 215 185 189 98 126 151 178 214 204 167 177 192 204 187 175 180 174 186 191 186 244 211 190 215 208 202 209 195 218 250 158 226 302 46 180 294 14 109 90 354 74 136 186 186 123 145 210 115 157 211 219 248 280 290 274 260 211 232 282 241 228 243 252 250 251 260 262 257 263 277 284 207
308 277 246 235 225 217 200 189 181 179 202 187 205 219 195 215 224 188 171 307 131 167 205 226 207 169 178 179 173 160 181 190 172 181 191 181 234 216 182 196 215 207 204 186 195 242 128 198 272 334 225 300 36 140 190 212 49 75 121 136 116 162 184 167 157 168 185 227 270 307 314 266 216 207 212 220 221 222 233 238 237 243 244 242 250 267 284 223
300 265 256 185 200 201 186 178 176 188 216 207 212 208 192 206 214 198 191 195 186 174 213 231 198 186 197 176 157 163 194 199 177 188 206 189 221 245 192 190 188 184 185 182 195 203 102 206 237 323 340 157 181 214 197 178 163 157 165 174 187 155 110 169 191 131 142 164 197 298 299 268 236 190 198 216 220 207 207 216 230 243 242 236 234 241 248 219
262 253 243 172 181 178 169 166 180 200 204 222 227 219 209 191 176 198 199 191 222 224 207 227 210 206 196 177 183 177 180 199 186 191 223 206 211 241 210 185 164 134 129 160 199 203 183 198 188 163 208 199 216 244 210 191 183 180 186 192 192 176 148 180 233 210 117 154 177 174 277 269 244 179 199 215 213 205 207 212 230 250 245 241 235 224 227 218
238 240 215 176 176 167 158 174 199 193 210 220 224 219 196 155 153 186 184 180 223 246 254 230 221 220 203 186 197 176 161 190 194 194 227 220 215 228 226 189 164 151 143 166 203 201 164 127 162 192 213 218 238 308 280 218 196 182 204 203 191 183 174 176 205 213 145 206 178 114 270 273 266 166 202 216 211 222 230 216 227 252 252 251 247 222 222 230
236 243 343 179 176 166 158 221 193 193 225 219 228 222 177 169 190 178 172 182 201 208 213 223 201 209 221 201 174 169 171 190 194 202 229 237 232 229 196 162 154 153 155 178 203 191 103 110 194 238 289 307 318 352 15 47 122 209 240 191 170 193 185 161 178 182 165 197 175 111 247 266 293 32 231 234 239 255 257 228 226 257 271 272 267 245 225 230
251 247 332 241 192 177 168 203 194 207 223 222 233 223 206 220 196 176 179 190 194 189 204 222 205 212 225 190 168 189 190 193 203 212 223 241 248 225 170 161 160 167 185 193 178 176 175 180 199 221 258 303 312 307 301 290 182 218 229 189 185 187 162 122 135 131 178 216 185 163 240 251 284 342 307 322 305 278 267 250 231 246 267 274 280 270 240 224
302 241 233 261 237 213 200 214 204 203 211 222 231 219 220 233 194 189 196 195 196 184 194 216 201 196 211 190 205 208 192 200 215 214 218 235 261 266 183 175 169 187 216 226 140 174 183 186 190 201 221 231 233 231 224 201 165 238 227 196 196 187 171 175 182 158 223 225 183 182 240 248 307 344 304 311 318 280 257 254 242 240 256 269 276 271 258 226
274 251 203 218 247 241 254 257 228 210 207 217 226 216 218 228 214 196 198 199 202 196 207 221 179 176 200 202 214 220 208 213 216 204 210 222 235 279 202 180 176 200 214 205 107 144 167 212 201 203 213 221 234 242 190 134 144 207 218 194 192 196 187 189 190 198 219 220 190 216 235 248 261 258 252 266 265 245 241 246 253 250 250 258 263 265 262 234
221 239 212 184 216 229 245 250 229 218 209 204 209 209 215 224 228 205 194 199 199 197 215 228 182 185 200 201 212 223 219 220 221 220 220 217 230 296 172 174 196 214 210 195 153 133 132 251 224 220 222 226 239 241 190 152 174 201 207 194 192 196 187 190 208 217 213 196 234 233 223 243 256 235 208 239 238 233 246 241 242 247 240 244 254 260 262 252
221 237 226 224 247 219 227 239 236 234 227 215 213 220 220 221 222 215 198 202 205 198 203 217 206 205 205 202 209 222 220 221 225 227 229 226 227 293 7 224 229 217 192 191 186 144 167 234 229 233 238 241 251 245 187 185 198 198 201 195 192 192 187 196 215 222 213 195 239 244 209 222 252 242 203 218 218 213 229 228 233 248 246 250 258 260 267 267
210 251 263 258 260 238 253 292 288 247 237 232 224 221 223 221 220 219 197 190 215 206 200 213 216 214 214 211 209 216 218 217 223 227 227 228 214 188 221 250 254 178 149 180 216 152 177 226 225 229 242 248 254 247 189 198 219 209 207 198 190 192 194 203 215 222 221 216 238 252 239 234 251 243 206 212 212 212 233 254 266 260 251 256 261 262 265 264
193 215 227 237 277 271 289 300 310 270 246 237 230 222 221 222 223 221 201 193 209 204 200 217 222 215 215 216 215 224 223 216 226 230 217 215 218 203 211 219 201 130 160 179 215 180 193 221 217 216 235 248 251 245 204 198 217 223 226 213 202 201 201 208 216 219 224 230 239 249 255 257 255 221 192 212 206 210 246 257 253 249 242 246 255 259 261 260
213 226 108 77 268 239 253 259 241 253 246 226 228 229 226 226 223 223 221 210 211 208 197 213 226 224 218 217 217 228 231 223 230 234 211 206 218 209 208 210 186 186 192 181 179 167 186 219 199 182 222 243 245 235 203 200 221 234 240 226 214 209 205 208 213 213 211 219 233 243 251 257 249 177 181 214 192 213 239 233 237 248 237 225 234 244 247 248
216 248 228 143 254 230 230 265 238 238 242 228 227 231 237 242 232 228 235 222 215 220 210 208 219 223 221 220 217 222 230 230 234 236 207 204 221 204 202 215 196 187 183 177 175 160 170 196 202 181 218 246 242 201 169 178 207 234 236 227 217 211 206 207 215 221 214 208 219 230 236 247 248 220 228 230 194 220 240 230 229 243 236 222 224 230 236 240